CO3D 3

Last updated on Sat Oct 25 2025 00:02:33 GMT+0000 (Coordinated Universal Time)

1 64900U 25156B 25297.73952603 .00009305 00000+0 43228-3 0 9996 2 64900 97.4342 14.8105 0001163 264.4703 95.6399 15.20212720 13766
UTC large
Height (km)
Speed (km/s)
/
Latitude / Longitude
Inclination (degrees)
Orbital Period (minutes)
Azimuth
Elevation
Range (km)
Doppler Factor

Next 0 passes for location: London (51.5072 / 0.1276)

Sorry there are no passes over London.